GW1612 Weather Reports


time (UTC)temp
F
wind
direction
speed
knots
gust
knots
rain 1hr
in
rain 24hr
in
rain mn
in
humidity
%
barometer
mb
20260510103657 50 63 0.0 0.0 0.00 0.00 0.00 99 1013.8
20260510103154 50 63 0.0 0.0 0.00 0.00 0.00 99 1013.9
20260510102654 50 62 0.0 0.0 0.00 0.00 0.00 99 1013.6
20260510102150 50 62 0.0 0.0 0.00 0.00 0.00 99 1013.6
20260510101648 50 63 0.0 0.0 0.00 0.00 0.00 99 1013.6
20260510101146 50 63 0.0 0.0 0.00 0.00 0.00 99 1013.3
20260510100642 50 61 0.0 0.0 0.00 0.00 0.00 99 1013.3
20260510100140 50 62 0.0 0.0 0.00 0.00 0.00 99 1013.0
20260510095635 50 61 0.0 0.0 0.00 0.00 0.00 99 1013.2
20260510095130 50 65 0.0 0.0 0.00 0.00 0.00 99 1013.0
20260510094629 50 81 0.0 0.0 0.00 0.00 0.00 99 1012.8
20260510094125 50 82 0.0 0.0 0.00 0.00 0.00 99 1012.7
20260510093622 50 82 0.0 0.0 0.00 0.00 0.00 99 1012.7
20260510093119 50 82 0.0 0.0 0.00 0.00 0.00 99 1012.8
20260510092615 50 60 0.0 0.9 0.00 0.00 0.00 99 1012.8
20260510092115 50 76 0.0 0.0 0.00 0.00 0.00 99 1012.7
20260510091612 50 57 0.0 0.9 0.00 0.00 0.00 99 1012.6
20260510091108 50 56 0.0 0.0 0.00 0.00 0.00 99 1012.6
20260510090605 50 254 0.9 0.9 0.00 0.00 0.00 99 1012.5
20260510090101 50 79 0.0 0.0 0.00 0.00 0.00 99 1012.6
20260510085556 50 78 0.0 0.0 0.00 0.00 0.00 99 1012.6
20260510085052 50 77 0.0 0.0 0.00 0.00 0.00 99 1012.5
20260510084549 50 82 0.0 0.0 0.00 0.00 0.00 99 1012.6
20260510084045 50 80 0.0 0.0 0.00 0.00 0.00 99 1012.2
20260510083542 50 82 0.0 0.0 0.00 0.00 0.00 99 1012.4
20260510083038 50 106 0.0 0.9 0.00 0.00 0.00 99 1012.5
20260510082535 50 87 0.0 0.9 0.00 0.00 0.00 99 1012.5
20260510082031 50 40 0.0 0.9 0.00 0.00 0.00 99 1012.6
20260510081526 50 87 0.0 0.0 0.00 0.00 0.00 99 1012.6
20260510081022 50 86 0.0 0.0 0.00 0.00 0.00 99 1012.6
20260510080521 50 87 0.0 0.9 0.00 0.00 0.00 99 1012.4
20260510080018 50 62 0.0 0.9 0.00 0.00 0.00 99 1012.6
20260510075515 50 49 0.0 0.9 0.00 0.00 0.00 99 1012.4
20260510075012 50 109 0.0 0.9 0.00 0.00 0.00 99 1012.5
20260510074510 50 82 0.0 0.9 0.00 0.00 0.00 99 1012.5
20260510074005 50 87 0.0 0.9 0.00 0.00 0.00 99 1012.6
20260510073501 50 212 0.9 0.9 0.00 0.00 0.00 99 1012.7
20260510072958 50 69 0.0 1.7 0.00 0.00 0.00 99 1012.6
20260510072455 50 99 0.0 1.7 0.00 0.00 0.00 99 1012.6
20260510071950 50 72 0.0 0.0 0.00 0.00 0.00 99 1013.0
20260510071447 50 89 0.0 0.0 0.00 0.00 0.00 99 1013.2
20260510070945 50 94 0.0 0.0 0.00 0.00 0.00 99 1013.2
20260510070442 50 129 0.0 0.9 0.00 0.00 0.00 99 1013.1
20260510065937 50 76 0.0 0.0 0.00 0.00 0.00 99 1013.2
20260510065435 50 89 0.0 0.0 0.00 0.00 0.00 99 1013.3
20260510064930 50 111 0.9 0.9 0.00 0.00 0.00 99 1013.4
20260510064428 50 61 0.0 0.0 0.00 0.00 0.00 99 1013.3
20260510063925 50 48 0.0 0.0 0.00 0.00 0.00 99 1013.5
20260510063421 50 48 0.0 0.0 0.00 0.00 0.00 99 1013.5
20260510062919 51 40 0.0 0.0 0.00 0.00 0.00 99 1013.4
20260510062414 51 38 0.0 0.0 0.00 0.00 0.00 99 1013.4
20260510061910 51 27 0.0 0.9 0.00 0.00 0.00 99 1013.2
20260510061407 50 42 0.0 0.0 0.00 0.00 0.00 99 1013.0
20260510060902 50 43 0.0 0.0 0.00 0.00 0.00 99 1013.1
20260510060359 50 43 0.0 0.0 0.00 0.00 0.00 99 1013.2
20260510055856 51 43 0.0 0.0 0.00 0.00 0.00 99 1013.2
20260510055355 51 63 0.0 0.0 0.00 0.00 0.00 99 1012.9
20260510054849 50 74 0.0 0.0 0.00 0.00 0.00 99 1012.8
20260510054345 50 77 0.0 0.0 0.00 0.00 0.00 99 1012.5
20260510053840 50 57 0.0 0.0 0.00 0.00 0.00 99 1012.8
20260510053335 50 104 0.0 0.9 0.00 0.00 0.00 99 1012.8
20260510052832 50 62 0.0 0.0 0.00 0.00 0.00 99 1012.8
20260510052327 51 74 0.0 0.0 0.00 0.00 0.00 99 1012.9
20260510051824 51 45 0.0 0.0 0.00 0.00 0.00 99 1012.9
20260510051321 51 113 0.0 0.0 0.00 0.00 0.00 99 1013.0
20260510050818 51 124 0.0 0.9 0.00 0.00 0.00 99 1012.8
20260510050314 51 76 0.9 0.9 0.00 0.00 0.00 99 1012.7
20260510045812 51 44 0.0 0.0 0.00 0.00 0.00 99 1012.9
20260510045308 51 83 0.0 0.0 0.00 0.00 0.00 99 1012.9
20260510044805 51 67 0.0 0.0 0.00 0.00 0.00 99 1012.8
20260510044302 51 71 0.9 0.9 0.00 0.00 0.00 99 1012.8
20260510043759 51 76 0.9 0.9 0.00 0.00 0.00 99 1012.6
20260510043255 51 68 0.0 0.0 0.00 0.00 0.00 99 1012.7
20260510042752 51 75 0.0 0.0 0.00 0.00 0.00 99 1012.7
20260510042247 51 62 0.0 0.0 0.00 0.00 0.00 99 1012.9
20260510041744 51 51 0.0 5.2 0.00 0.00 0.00 99 1012.8
20260510041241 51 75 0.9 1.7 0.00 0.00 0.00 99 1012.7
20260510040739 51 120 0.0 0.9 0.00 0.00 0.00 99 1012.8
20260510040230 51 110 0.0 2.6 0.00 0.00 0.00 99 1012.7
20260510035725 51 65 0.0 0.9 0.00 0.44 0.44 99 1012.7
20260510035221 51 48 0.9 1.7 0.00 0.44 0.44 99 1012.5
20260510034717 51 43 0.0 0.9 0.00 0.44 0.44 99 1012.8
20260510034216 51 79 0.0 1.7 0.00 0.44 0.44 99 1012.6
20260510033711 51 71 0.0 2.6 0.00 0.44 0.44 99 1012.8
20260510033209 51 72 0.0 0.0 0.00 0.44 0.44 99 1012.7
20260510032705 51 81 0.0 0.9 0.00 0.44 0.44 99 1012.7
20260510032201 51 98 0.9 0.9 0.00 0.44 0.44 99 1012.8
20260510031655 52 74 0.0 1.7 0.00 0.44 0.44 99 1012.6
20260510031152 52 97 0.0 4.3 0.00 0.44 0.44 99 1012.7
20260510030646 52 134 2.6 2.6 0.00 0.44 0.44 99 1012.7
20260510030144 52 72 0.0 0.0 0.00 0.44 0.44 99 1012.7
20260510025641 52 94 0.0 1.7 0.00 0.44 0.44 99 1012.4
20260510025139 52 89 0.0 0.9 0.00 0.44 0.44 99 1012.4
20260510024635 52 111 0.0 0.9 0.00 0.44 0.44 99 1012.7
20260510024132 52 78 0.0 0.9 0.00 0.44 0.44 99 1012.7
20260510023628 52 81 0.0 0.9 0.00 0.44 0.44 99 1012.5
20260510023126 52 64 0.0 1.7 0.00 0.44 0.44 99 1012.4
20260510022625 52 74 0.0 0.0 0.00 0.44 0.44 99 1012.6
20260510022120 52 82 0.0 0.0 0.00 0.44 0.44 99 1012.6
20260510021616 52 65 0.0 0.9 0.00 0.44 0.44 99 1012.6
20260510021114 52 80 0.0 0.0 0.00 0.44 0.44 99 1012.3
20260510020608 52 79 0.0 0.0 0.00 0.44 0.44 99 1012.4
20260510020103 52 57 0.0 0.0 0.00 0.44 0.44 99 1012.5
20260510015600 52 89 0.0 0.0 0.00 0.44 0.44 99 1012.6
20260510015056 52 70 0.0 0.0 0.00 0.44 0.44 99 1012.6
20260510014552 52 70 0.0 0.0 0.00 0.44 0.44 99 1012.7
20260510014049 52 102 0.0 0.9 0.00 0.44 0.44 99 1013.0
20260510013544 52 79 0.0 0.0 0.00 0.44 0.44 99 1012.8
20260510013040 52 100 0.0 1.7 0.00 0.44 0.44 99 1012.9
20260510012533 52 75 0.0 1.7 0.00 0.44 0.44 99 1012.7
20260510012030 52 68 0.0 0.0 0.00 0.44 0.44 99 1012.5
20260510011524 52 71 0.0 0.0 0.00 0.44 0.44 99 1012.6
20260510011020 52 75 0.0 0.0 0.00 0.44 0.44 99 1012.6
20260510010517 52 54 0.0 0.0 0.00 0.44 0.44 99 1012.6
20260510010014 52 63 0.0 0.0 0.00 0.44 0.44 99 1012.4
20260510005509 52 98 0.0 0.9 0.00 0.44 0.44 99 1012.3
20260510005007 52 71 0.0 0.9 0.00 0.44 0.44 99 1012.5
20260510004504 52 63 1.7 2.6 0.00 0.44 0.44 99 1012.4
20260510004003 52 69 0.0 0.0 0.00 0.44 0.44 99 1012.4
20260510003459 52 82 0.0 1.7 0.00 0.44 0.44 99 1012.6
20260510002954 52 64 0.0 0.9 0.00 0.44 0.44 99 1012.4
20260510002450 51 65 0.0 0.0 0.00 0.44 0.44 99 1012.3
20260510001947 51 65 0.0 0.0 0.00 0.44 0.44 99 1012.0
20260510001444 51 65 0.0 0.0 0.00 0.44 0.44 99 1012.0
20260510000942 52 85 0.0 0.0 0.00 0.44 0.44 99 1011.8
20260510000440 51 51 0.9 0.9 0.00 0.44 0.44 99 1011.8
20260509235935 51 63 0.0 0.0 0.00 0.44 0.44 98 1011.8
20260509235432 52 70 0.0 0.0 0.00 0.44 0.44 98 1011.7
20260509234928 52 70 0.0 0.0 0.00 0.44 0.44 98 1011.3
20260509234425 52 80 0.0 1.7 0.00 0.44 0.44 98 1011.5
20260509233923 52 94 0.9 1.7 0.00 0.44 0.44 97 1011.5
20260509233421 52 75 0.0 2.6 0.00 0.44 0.44 97 1011.3
20260509232916 53 82 0.0 2.6 0.00 0.44 0.44 97 1011.3
20260509232415 53 68 0.0 0.9 0.00 0.44 0.44 96 1011.2
20260509231910 53 181 2.6 2.6 0.00 0.44 0.44 96 1011.3
20260509231406 53 109 0.9 0.9 0.00 0.44 0.44 95 1011.3
20260509230905 53 82 0.0 1.7 0.00 0.44 0.44 95 1011.2
20260509230401 53 96 0.9 1.7 0.00 0.44 0.44 95 1011.4
20260509225857 53 125 1.7 2.6 0.00 0.44 0.44 94 1011.2
20260509225353 54 104 0.9 2.6 0.00 0.44 0.44 94 1011.4
20260509224849 54 166 0.9 1.7 0.00 0.44 0.44 94 1011.3
20260509224345 54 72 0.0 4.3 0.00 0.44 0.44 93 1011.3
20260509223842 55 181 1.7 4.3 0.00 0.44 0.44 94 1011.2
20260509223339 54 100 0.9 0.9 0.00 0.44 0.44 94 1011.3
20260509222836 54 98 0.9 1.7 0.00 0.44 0.44 94 1011.4
20260509222331 54 105 0.9 1.7 0.00 0.44 0.44 94 1011.4
20260509221827 54 86 0.9 2.6 0.00 0.44 0.44 94 1011.5
20260509221325 54 161 1.7 1.7 0.00 0.44 0.44 94 1011.5
20260509220825 54 232 0.9 1.7 0.00 0.44 0.44 94 1011.7
20260509220321 54 100 0.0 0.9 0.00 0.44 0.44 95 1011.6
20260509215817 53 114 0.9 0.9 0.00 0.44 0.44 95 1011.6
20260509215314 54 180 0.9 2.6 0.00 0.44 0.44 95 1011.7
20260509214811 54 70 0.9 1.7 0.00 0.44 0.44 95 1011.6
20260509214308 53 118 1.7 2.6 0.00 0.44 0.44 95 1011.5
20260509213804 54 77 0.9 2.6 0.00 0.44 0.44 95 1011.6
20260509213300 53 167 0.9 2.6 0.00 0.44 0.44 95 1011.5
20260509212758 53 24 0.9 2.6 0.00 0.44 0.44 95 1011.7
20260509212255 54 223 2.6 2.6 0.00 0.44 0.44 95 1011.6
20260509211750 54 32 0.9 1.7 0.00 0.44 0.44 95 1011.4
20260509211247 54 108 0.9 2.6 0.00 0.44 0.44 96 1011.4
20260509210743 54 102 0.9 0.9 0.00 0.44 0.44 96 1011.5
20260509210242 54 330 0.9 1.7 0.00 0.44 0.44 97 1011.6
20260509205741 54 47 0.9 0.9 0.00 0.44 0.44 97 1011.7
20260509205236 54 108 1.7 1.7 0.00 0.44 0.44 96 1011.8
20260509204732 54 103 0.9 0.9 0.00 0.44 0.44 96 1011.8
20260509204229 53 103 0.9 1.7 0.00 0.44 0.44 96 1011.9
20260509203725 54 98 0.9 0.9 0.00 0.44 0.44 97 1011.9
20260509203223 53 77 0.9 0.9 0.00 0.44 0.44 97 1012.0
20260509202719 53 138 0.9 0.9 0.00 0.44 0.44 97 1012.0
20260509202215 53 66 0.0 0.0 0.00 0.44 0.44 98 1011.9
20260509201709 53 69 0.0 0.0 0.00 0.44 0.44 98 1012.1
20260509201207 52 86 0.0 0.9 0.00 0.44 0.44 98 1012.1
20260509200703 52 113 0.9 1.7 0.00 0.44 0.44 98 1012.2
20260509200157 52 55 0.0 1.7 0.00 0.44 0.44 99 1012.2
20260509195653 52 36 0.9 0.9 0.00 0.44 0.44 99 1012.1
20260509195149 52 152 0.9 1.7 0.00 0.44 0.44 99 1012.3
20260509194643 51 116 0.9 2.6 0.00 0.44 0.44 99 1012.4
20260509194141 52 74 0.9 0.9 0.00 0.44 0.44 99 1012.4
20260509193636 51 188 0.9 2.6 0.07 0.44 0.44 99 1012.5
20260509193132 51 153 0.9 1.7 0.00 0.43 0.43 99 1012.5
20260509192629 51 82 1.7 2.6 0.00 0.43 0.43 99 1012.8
20260509192123 51 136 0.9 4.3 0.00 0.43 0.43 99 1012.7
20260509191618 51 93 0.9 1.7 0.00 0.43 0.43 99 1012.7
20260509191115 51 194 1.7 1.7 0.00 0.43 0.43 99 1012.6
20260509190611 51 89 0.9 1.7 0.00 0.43 0.43 99 1013.0
20260509190109 51 80 0.9 5.2 0.05 0.43 0.43 99 1013.0
20260509185606 51 68 0.0 2.6 0.05 0.43 0.43 99 1012.9
20260509185102 50 62 0.0 0.9 0.00 0.42 0.42 99 1013.0
20260509184601 50 116 0.9 1.7 0.07 0.42 0.42 99 1013.1
20260509184057 50 71 0.0 2.6 0.07 0.42 0.42 99 1013.2
20260509183552 50 94 2.6 2.6 0.05 0.41 0.41 99 1013.2
20260509183048 50 60 0.9 1.7 0.05 0.41 0.41 99 1013.2
20260509182545 50 94 1.7 1.7 0.07 0.40 0.40 99 1013.3
20260509182042 50 86 0.0 0.9 0.07 0.40 0.40 99 1013.1
20260509181540 50 99 0.0 0.9 0.00 0.39 0.39 99 1013.1
20260509181037 50 78 0.0 0.9 0.00 0.39 0.39 99 1013.1
20260509180532 49 125 1.7 4.3 0.07 0.39 0.39 99 1013.0
20260509180030 49 99 0.0 1.7 0.07 0.39 0.39 99 1013.1
20260509175525 49 99 1.7 4.3 0.05 0.38 0.38 99 1013.0
20260509175023 49 147 0.9 1.7 0.05 0.38 0.38 99 1013.0
20260509174519 49 85 0.0 1.7 0.00 0.37 0.37 99 1013.1
20260509174014 49 104 0.0 2.6 0.00 0.37 0.37 99 1013.1
20260509173509 49 172 0.9 1.7 0.07 0.37 0.37 99 1013.2
20260509173005 49 94 0.9 2.6 0.07 0.37 0.37 99 1013.2
20260509172503 49 189 1.7 4.3 0.00 0.36 0.36 99 1013.2
20260509171958 49 130 0.9 2.6 0.05 0.36 0.36 99 1013.4
20260509171454 49 84 0.0 2.6 0.05 0.36 0.36 99 1013.3
20260509170951 49 109 0.9 1.7 0.00 0.35 0.35 99 1013.5
20260509170446 49 99 0.0 2.6 0.00 0.35 0.35 99 1013.7
20260509165942 49 76 0.0 1.7 0.07 0.35 0.35 99 1013.7
20260509165441 48 87 0.0 1.7 0.07 0.35 0.35 99 1013.8
20260509164937 49 121 0.9 2.6 0.00 0.34 0.34 98 1013.9
20260509164433 48 124 0.9 0.9 0.00 0.34 0.34 98 1013.7
20260509163929 48 73 0.0 1.7 0.00 0.34 0.34 98 1013.8
20260509163427 48 106 0.9 0.9 0.05 0.34 0.34 98 1013.8
20260509162926 48 148 0.9 1.7 0.05 0.34 0.34 98 1014.0
20260509162425 47 99 0.0 0.9 0.00 0.33 0.33 98 1013.9
20260509161920 47 98 0.0 0.9 0.00 0.33 0.33 98 1014.0
20260509161417 47 77 0.0 0.0 0.00 0.33 0.33 98 1014.1
20260509160912 47 52 0.0 0.0 0.00 0.33 0.33 98 1014.0
20260509160408 46 82 0.0 0.9 0.07 0.33 0.33 98 1014.2
20260509155903 46 82 0.0 0.0 0.07 0.33 0.33 98 1014.4
20260509155401 46 87 0.0 0.0 0.00 0.32 0.32 98 1014.6
20260509154857 45 87 0.0 0.0 0.00 0.32 0.32 99 1014.5
20260509154353 45 85 0.0 0.0 0.00 0.32 0.32 99 1014.6
20260509153850 45 36 0.0 0.9 0.05 0.32 0.32 99 1014.7
20260509153347 45 37 0.0 0.0 0.05 0.32 0.32 99 1014.7
20260509152844 45 36 0.0 0.0 0.00 0.31 0.31 99 1014.8
20260509152340 45 37 0.0 0.9 0.00 0.31 0.31 99 1014.8
20260509151837 45 91 0.0 0.0 0.00 0.31 0.31 99 1014.7
20260509151333 44 359 0.0 0.9 0.07 0.31 0.31 99 1014.8
20260509150832 44 33 0.0 0.9 0.07 0.31 0.31 99 1014.9
20260509150329 44 44 0.0 0.0 0.00 0.30 0.30 99 1014.9
20260509145826 44 20 0.0 0.0 0.05 0.30 0.30 99 1015.0
20260509145321 44 45 0.0 0.0 0.05 0.30 0.30 99 1015.1
20260509144818 43 41 0.0 0.0 0.00 0.29 0.29 99 1015.1
20260509144315 43 39 0.0 0.0 0.07 0.29 0.29 99 1014.9
20260509143812 43 27 0.0 0.9 0.07 0.29 0.29 99 1015.2
20260509143309 43 50 0.0 0.0 0.05 0.28 0.28 99 1015.1
20260509142805 43 64 0.0 0.0 0.05 0.28 0.28 99 1015.1
20260509142301 43 92 0.0 0.0 0.07 0.27 0.27 99 1015.2
20260509141757 42 46 0.0 0.9 0.07 0.27 0.27 99 1015.0
20260509141255 43 72 0.0 0.0 0.07 0.26 0.26 99 1015.1
20260509140751 42 14 0.0 0.0 0.00 0.25 0.25 99 1014.9
20260509140248 42 46 0.0 0.0 0.00 0.25 0.25 99 1014.9
20260509135746 42 43 0.0 0.0 0.05 0.25 0.25 99 1014.9
20260509135244 42 28 0.0 0.9 0.05 0.25 0.25 99 1015.1
20260509134740 42 50 0.0 0.0 0.00 0.24 0.24 99 1014.9
20260509134238 42 44 0.0 0.0 0.07 0.24 0.24 99 1014.8
20260509133735 42 41 0.0 0.0 0.07 0.24 0.24 99 1014.9
20260509133231 42 49 0.0 0.0 0.00 0.23 0.23 99 1014.6
20260509132730 42 49 0.0 0.0 0.00 0.23 0.23 99 1015.1
20260509132228 42 29 0.0 0.9 0.05 0.23 0.23 99 1014.9
20260509131725 42 39 0.0 0.0 0.05 0.23 0.23 99 1014.8
20260509131221 42 61 0.0 0.0 0.00 0.22 0.22 99 1014.8
20260509130717 42 61 0.0 0.0 0.00 0.22 0.22 99 1015.0
20260509130213 42 55 0.0 0.0 0.00 0.22 0.22 99 1015.2
20260509125710 41 103 0.0 0.9 0.00 0.22 0.22 99 1015.4
20260509125207 42 98 0.0 0.0 0.00 0.22 0.22 99 1015.2
20260509124703 42 87 0.0 0.0 0.00 0.22 0.22 99 1014.9
20260509124200 42 45 0.0 0.0 0.00 0.22 0.22 99 1015.0
20260509123658 41 51 0.0 0.0 0.00 0.22 0.22 99 1015.1
20260509123155 42 49 0.0 0.9 0.00 0.22 0.22 99 1015.0
20260509122650 41 33 0.0 0.9 0.00 0.22 0.22 99 1015.2
20260509122148 41 42 0.0 0.0 0.07 0.22 0.22 99 1015.2
20260509121644 41 31 0.0 0.9 0.07 0.22 0.22 99 1015.4
20260509121142 42 43 0.0 0.0 0.00 0.21 0.21 99 1015.2
20260509120640 41 43 0.0 0.0 0.00 0.21 0.21 99 1015.4
20260509120138 41 43 0.0 0.0 0.00 0.21 0.21 99 1015.4
20260509115635 41 43 0.0 0.0 0.00 0.21 0.21 99 1015.4
20260509115133 41 43 0.0 0.0 0.00 0.21 0.21 99 1015.4
20260509114631 41 49 0.0 0.0 0.00 0.21 0.21 99 1015.5
20260509114129 41 51 0.0 0.0 0.00 0.21 0.21 99 1015.6
20260509113627 41 52 0.0 0.0 0.05 0.21 0.21 99 1015.4
20260509113124 41 52 0.0 0.0 0.05 0.21 0.21 99 1015.5
20260509112620 41 52 0.0 0.0 0.00 0.20 0.20 99 1015.2
20260509112118 41 51 0.0 0.0 0.00 0.20 0.20 99 1015.2
20260509111615 40 56 0.0 0.0 0.07 0.20 0.20 99 1015.4
20260509111111 40 56 0.0 0.0 0.07 0.20 0.20 99 1015.5
20260509110609 41 70 0.0 0.0 0.05 0.19 0.19 99 1015.6
20260509110106 41 74 0.0 0.0 0.12 0.19 0.19 99 1015.5
20260509105604 40 86 0.0 0.0 0.12 0.18 0.18 99 1015.6
20260509105101 41 80 0.0 0.0 0.05 0.17 0.17 99 1015.6
20260509104558 41 79 0.0 0.0 0.07 0.16 0.16 99 1015.7
20260509104055 40 57 0.0 0.0 0.07 0.16 0.16 99 1015.7